Location: Burtsch�tz
(51.0528°N, 12.1764°E)
Time: 14:34:57
(UTC+00:00)

Okean-O - Pass Details

Date: 29 October 2020
Orbit: 638 x 641 km, 98.2° (Epoch: 28 November)

Event Time Altitude Azimuth Distance (km) Brightness Sun altitude
Rises 17:59:34 0° 179° (S) 2,935 6.0 -20.8°
Reaches altitude 10° 18:01:50 10° 185° (S) 2,031 5.2 -21.2°
Maximum altitude 18:06:07 48° 260° (W) 842 3.6 -21.8°
Drops below altitude 10° 18:10:26 10° 336° (NNW) 2,046 5.6 -22.5°
Sets 18:12:43 0° 342° (NNW) 2,960 6.4 -22.9°
